Погода в Костково

Россия / Новгородская область     58°07′15″N   33°02′31″E
темп.,
°C
ветер,
м/с
пор.,
м/с
влажн.,
%
обл.,
%
осадки,
мм/ч
давл.,
гПа
погр.,
м
4 августа, ср
ср400:00+12зюз411843 0.0 1010413
03:00+9юз279810 0.0 1012164
06:00+10юз25955 0.0 1013138
09:00+15зюз34655 0.0 1014595
12:00+19з464236 0.0 10152071
15:00+19зюз3543100 0.0 10151876
18:00+18зсз244715 0.0 10161138
21:00+13юв0070100 0.0 101610
5 августа, чт
чт500:00+14юз1164100 0.0 101711
03:00+13юв2165100 0.0 101729
06:00+13юв1166100 0.0 101714
09:00+15вюв1364100 0.0 1017155
12:00+20вюв2344100 0.0 10171368
15:00+18юв2454100 0.0 1017620
18:00+15юв2577100 0.1 1016230
21:00+13вюв3992100 0.4 1017350
6 августа, пт
пт600:00+12в3109154 0.1 1016400
03:00+11всв289597 0.1 1016269
06:00+12всв399299 0.1 1015360
09:00+15в511745 0.1 1015836
12:00+19всв684884 0.0 10141794
15:00+19в584898 0.0 10141861
18:00+18всв5953100 0.0 10141446
21:00+13всв5107899 0.0 1015795
7 августа, сб
сб700:00+12всв51186100 0.0 1014591
03:00+12всв41188100 0.0 1014546
06:00+12всв51394100 0.3 1013641
09:00+13в6149798 6.6 1013743
12:00+14в61397100 0.8 1013688
15:00+14в51296100 1.5 1014660
18:00+14в6139698 1.8 1013587
21:00+14в51298100 2.7 1013533
8 августа, вс
вс800:00+14в51498100 3.1 1011612
03:00+16вюв51298100 10.1 1011621
06:00+16вюв41198100 1.4 1011552
09:00+16вюв41098100 2.2 1011476
12:00+16вюв3798100 1.1 1012438
15:00+17юв2699100 2.3 1012377
18:00+17юв11100100 4.6 101375
21:00+16з1199100 8.1 101323